• In Hungary
  • List of Countries
  • For 7 days
  • Water Temperature
  • Satellite Maps
  • Weather Map
  • News
  • Weather Widgets
  • user-avatar
    Login

    Hourly Weather Yampol

    Today, 20 September, Thursday

    Time Temperature Precipitation Wind Pressure Humidity
    00:00 +19°C° 0 mm 1 mps 755 mmHg 55%
    01:00 +19°C° 0 mm 1 mps 755 mmHg 56%
    02:00 +18°C° 0 mm 1 mps 756 mmHg 57%
    03:00 +18°C° 0 mm 1 mps 756 mmHg 58%
    04:00 +18°C° 0 mm 1 mps 756 mmHg 58%
    05:00 +16°C° 0 mm 1 mps 755 mmHg 59%
    06:00 +19°C° 0 mm 1 mps 756 mmHg 56%
    07:00 +20°C° 0 mm 1 mps 756 mmHg 53%
    08:00 +21°C° 0 mm 1 mps 756 mmHg 50%
    09:00 +23°C° 0 mm 1 mps 756 mmHg 45%
    10:00 +25°C° 0 mm 2 mps 756 mmHg 40%
    11:00 +26°C° 0 mm 2 mps 756 mmHg 35%
    12:00 +27°C° 0 mm 2 mps 755 mmHg 34%
    13:00 +28°C° 0 mm 2 mps 755 mmHg 32%
    14:00 +29°C° 0 mm 2 mps 755 mmHg 30%
    15:00 +28°C° 0 mm 1 mps 755 mmHg 32%
    16:00 +28°C° 0 mm 1 mps 755 mmHg 35%
    17:00 +26°C° 0 mm 0 mps 754 mmHg 37%
    18:00 +24°C° 0 mm 0 mps 754 mmHg 39%
    19:00 +22°C° 0 mm 0 mps 754 mmHg 41%
    20:00 +20°C° 0 mm 0 mps 754 mmHg 43%
    21:00 +20°C° 0 mm 0 mps 754 mmHg 44%
    22:00 +19°C° 0 mm 0 mps 754 mmHg 46%
    23:00 +19°C° 0 mm 0 mps 754 mmHg 47%

    Tomorrow, 21 September, Friday

    Time Temperature Precipitation Wind Pressure Humidity
    00:00 +20°C° 0 mm 1 mps 754 mmHg 48%
    01:00 +20°C° 0 mm 1 mps 754 mmHg 49%
    02:00 +19°C° 0 mm 1 mps 754 mmHg 51%
    03:00 +19°C° 0 mm 1 mps 754 mmHg 52%
    04:00 +19°C° 0 mm 1 mps 754 mmHg 53%
    05:00 +18°C° 0 mm 1 mps 754 mmHg 54%
    06:00 +20°C° 0 mm 1 mps 754 mmHg 52%
    07:00 +21°C° 0 mm 1 mps 755 mmHg 51%
    08:00 +22°C° 0 mm 1 mps 755 mmHg 49%
    09:00 +24°C° 0 mm 2 mps 755 mmHg 44%
    10:00 +26°C° 0 mm 2 mps 755 mmHg 39%
    11:00 +28°C° 0 mm 3 mps 755 mmHg 35%
    12:00 +28°C° 0 mm 3 mps 754 mmHg 33%
    13:00 +29°C° 0 mm 3 mps 754 mmHg 31%
    14:00 +30°C° 0 mm 3 mps 753 mmHg 29%
    15:00 +29°C° 0 mm 3 mps 753 mmHg 32%
    16:00 +29°C° 0 mm 2 mps 753 mmHg 34%
    17:00 +28°C° 0 mm 2 mps 753 mmHg 36%
    18:00 +26°C° 0 mm 2 mps 753 mmHg 39%
    19:00 +25°C° 0 mm 2 mps 753 mmHg 41%
    20:00 +23°C° 0 mm 2 mps 753 mmHg 43%
    21:00 +21°C° 0 mm 2 mps 753 mmHg 44%
    22:00 +21°C° 0 mm 2 mps 753 mmHg 46%
    23:00 +20°C° 0 mm 2 mps 753 mmHg 47%

    Day after tomorrow, 22 September, Saturday

    Time Temperature Precipitation Wind Pressure Humidity
    00:00 +20°C° 0 mm 2 mps 753 mmHg 48%
    01:00 +19°C° 0 mm 2 mps 752 mmHg 49%
    02:00 +19°C° 0 mm 2 mps 752 mmHg 50%
    03:00 +18°C° 0 mm 2 mps 752 mmHg 51%
    04:00 +18°C° 0 mm 2 mps 752 mmHg 52%
    05:00 +18°C° 0 mm 2 mps 752 mmHg 53%
    06:00 +19°C° 0 mm 2 mps 752 mmHg 51%
    07:00 +20°C° 0 mm 2 mps 752 mmHg 50%
    08:00 +21°C° 0 mm 2 mps 752 mmHg 48%
    09:00 +24°C° 0 mm 3 mps 752 mmHg 44%
    10:00 +26°C° 0 mm 3 mps 752 mmHg 40%
    11:00 +27°C° 0 mm 3 mps 752 mmHg 36%
    12:00 +28°C° 0 mm 3 mps 752 mmHg 34%
    13:00 +29°C° 0 mm 3 mps 751 mmHg 32%
    14:00 +30°C° 0 mm 3 mps 751 mmHg 30%
    15:00 +29°C° 0 mm 3 mps 751 mmHg 33%
    16:00 +29°C° 0 mm 2 mps 750 mmHg 35%
    17:00 +28°C° 0 mm 2 mps 750 mmHg 38%
    18:00 +26°C° 0 mm 2 mps 750 mmHg 42%
    19:00 +24°C° 0 mm 2 mps 751 mmHg 47%
    20:00 +23°C° 0 mm 2 mps 751 mmHg 51%
    21:00 +20°C° 0 mm 3 mps 751 mmHg 57%
    22:00 +19°C° 0 mm 4 mps 751 mmHg 62%
    23:00 +17°C° 0 mm 5 mps 751 mmHg 67%

    23 September, Sunday

    Time Temperature Precipitation Wind Pressure Humidity
    00:00 +16°C° 0.1 mm 5 mps 751 mmHg 67%
    01:00 +15°C° 0.1 mm 6 mps 752 mmHg 68%
    02:00 +14°C° 0.1 mm 6 mps 752 mmHg 69%
    03:00 +13°C° 0.1 mm 6 mps 752 mmHg 71%
    04:00 +13°C° 0.1 mm 6 mps 753 mmHg 74%
    05:00 +12°C° 0.1 mm 5 mps 753 mmHg 77%
    06:00 +12°C° 0 mm 5 mps 753 mmHg 74%
    07:00 +12°C° 0 mm 5 mps 754 mmHg 71%
    08:00 +12°C° 0 mm 5 mps 754 mmHg 67%
    09:00 +14°C° 0 mm 5 mps 754 mmHg 60%
    10:00 +15°C° 0 mm 4 mps 754 mmHg 53%
    11:00 +18°C° 0 mm 4 mps 754 mmHg 46%
    12:00 +19°C° 0 mm 4 mps 754 mmHg 43%
    13:00 +19°C° 0 mm 4 mps 754 mmHg 39%
    14:00 +20°C° 0 mm 4 mps 754 mmHg 36%
    15:00 +20°C° 0 mm 4 mps 754 mmHg 37%
    16:00 +19°C° 0 mm 3 mps 753 mmHg 38%
    17:00 +19°C° 0 mm 3 mps 753 mmHg 40%
    18:00 +18°C° 0 mm 2 mps 753 mmHg 43%
    19:00 +16°C° 0 mm 1 mps 754 mmHg 47%
    20:00 +15°C° 0 mm 1 mps 754 mmHg 50%
    21:00 +15°C° 0 mm 1 mps 753 mmHg 51%
    22:00 +14°C° 0 mm 1 mps 753 mmHg 51%
    23:00 +14°C° 0 mm 2 mps 753 mmHg 51%

    24 September, Monday

    Time Temperature Precipitation Wind Pressure Humidity
    00:00 +14°C° 0 mm 2 mps 752 mmHg 51%
    01:00 +13°C° 0 mm 3 mps 751 mmHg 50%
    02:00 +13°C° 0 mm 4 mps 751 mmHg 50%
    03:00 +13°C° 0 mm 5 mps 750 mmHg 49%
    04:00 +13°C° 0 mm 6 mps 749 mmHg 48%
    05:00 +14°C° 0 mm 6 mps 748 mmHg 47%
    06:00 +15°C° 0 mm 8 mps 747 mmHg 50%
    07:00 +16°C° 0 mm 9 mps 746 mmHg 53%
    08:00 +17°C° 0 mm 10 mps 745 mmHg 56%
    09:00 +19°C° 0 mm 10 mps 745 mmHg 55%
    10:00 +22°C° 0 mm 11 mps 744 mmHg 54%
    11:00 +24°C° 0 mm 11 mps 743 mmHg 53%
    12:00 +26°C° 0 mm 11 mps 742 mmHg 50%
    13:00 +28°C° 0 mm 11 mps 741 mmHg 46%
    14:00 +29°C° 0 mm 11 mps 740 mmHg 43%
    15:00 +27°C° 0.4 mm 10 mps 740 mmHg 48%
    16:00 +26°C° 0.4 mm 9 mps 740 mmHg 53%
    17:00 +23°C° 0.4 mm 8 mps 740 mmHg 58%
    18:00 +21°C° 0.7 mm 8 mps 741 mmHg 59%
    19:00 +18°C° 0.7 mm 8 mps 742 mmHg 59%
    20:00 +15°C° 0.7 mm 8 mps 743 mmHg 60%
    21:00 +15°C° 0 mm 7 mps 743 mmHg 61%
    22:00 +14°C° 0 mm 7 mps 744 mmHg 62%
    23:00 +13°C° 0 mm 6 mps 744 mmHg 63%

    25 September, Tuesday

    Time Temperature Precipitation Wind Pressure Humidity
    00:00 +11°C° 0 mm 7 mps 745 mmHg 61%
    01:00 +11°C° 0 mm 7 mps 745 mmHg 59%
    02:00 +11°C° 0 mm 8 mps 745 mmHg 58%
    03:00 +11°C° 0 mm 8 mps 745 mmHg 58%
    04:00 +10°C° 0 mm 8 mps 746 mmHg 58%
    05:00 +10°C° 0 mm 9 mps 746 mmHg 58%
    06:00 +11°C° 0 mm 10 mps 746 mmHg 57%
    07:00 +11°C° 0 mm 10 mps 747 mmHg 57%
    08:00 +12°C° 0 mm 11 mps 747 mmHg 56%
    09:00 +12°C° 0 mm 11 mps 748 mmHg 53%
    10:00 +13°C° 0 mm 11 mps 749 mmHg 50%
    11:00 +13°C° 0 mm 10 mps 749 mmHg 47%
    12:00 +13°C° 0 mm 10 mps 749 mmHg 46%
    13:00 +13°C° 0 mm 10 mps 750 mmHg 45%
    14:00 +13°C° 0 mm 9 mps 750 mmHg 45%
    15:00 +13°C° 0 mm 8 mps 750 mmHg 45%
    16:00 +12°C° 0 mm 8 mps 751 mmHg 45%
    17:00 +12°C° 0 mm 7 mps 751 mmHg 45%
    18:00 +11°C° 0 mm 6 mps 751 mmHg 48%
    19:00 +10°C° 0 mm 5 mps 752 mmHg 51%
    20:00 +10°C° 0 mm 4 mps 752 mmHg 54%
    21:00 +8°C° 0 mm 4 mps 753 mmHg 57%
    22:00 +8°C° 0 mm 4 mps 753 mmHg 60%
    23:00 +7°C° 0 mm 4 mps 753 mmHg 62%
    Show more